[[{"header":{"parameterUnit":"m.s-1","parameterCategory":1,"la1":30.2991,"la2":30.254,"lo1":-89.0895,"lo2":-89.0444,"dy":0.0017,"dx":0.0017,"nx":28,"ny":28,"refTime":"2025-07-10T03:00:00:Z","depth":0,"parameterNumber":2,"parameterNumberName":"U-component_of_WINDS"},"data":[0,0,0,0,0,0,0,0,0,0,0,0,0,0,0,0,0,0,0,0,0,0,0,0,0,0,0,0,0,0,0,0,0,0,0,0,0,0,0,0,0,0,0,0,0,0,0,0,0,0,0,0,0,0,0,0,0,0,2.2778,2.2779,0,2.2855,2.2856,2.2857,2.2815,2.2813,2.2811,2.2809,2.2893,2.2897,2.2901,0,0,0,0,0,0,0,0,0,0,0,0,0,2.2597,2.26,2.2778,2.2779,2.278,2.2855,2.2856,2.2857,2.2816,2.2813,2.281,2.2808,2.2891,2.2896,2.2901,0,0,0,0,0,0,0,0,0,0,0,0,0,2.2675,2.2601,2.2778,2.2768,2.2768,2.2855,2.2856,2.2858,2.2816,2.2813,2.281,2.2807,2.289,2.2896,2.2902,2.3004,0,0,2.2921,2.2924,0,0,0,0,0,0,0,0,2.2671,2.2682,2.2769,2.2769,2.2769,2.2822,2.2823,2.2907,2.2817,2.2798,2.2809,2.2805,2.2872,2.288,2.2901,2.3008,2.3012,2.2922,2.2925,2.2928,2.293,0,0,0,0,0,0,0,2.2665,2.2678,2.2809,2.277,2.277,2.2761,2.2768,2.2839,2.2852,2.2799,2.2797,2.2806,2.2872,2.2895,2.2903,2.3013,2.2921,2.2927,2.2931,2.2933,2.3203,2.3207,0,0,0,0,0,0,2.266,2.2674,2.2806,2.2811,2.2711,2.2766,2.2775,2.2808,2.2851,2.2854,2.2809,2.2804,2.2886,2.2896,2.2906,2.3025,2.2928,2.2934,2.2938,2.32,2.3204,2.3208,0,0,0,0,0,0,2.2656,2.2672,2.2803,2.2742,2.2758,2.2773,2.2811,2.2812,2.2835,2.2858,2.2861,2.283,2.2884,2.2897,2.2979,2.3027,2.2937,2.2943,2.3196,2.3201,2.3206,2.3266,0,0,0,0,0,0,2.2651,2.2671,2.271,2.2743,2.2761,2.2875,2.2814,2.2815,2.2845,2.284,2.2879,2.2882,2.2882,2.2969,2.2985,2.3034,2.2948,2.3192,2.3198,2.3204,2.326,2.3273,2.3284,0,0,0,0,0,2.2645,2.2726,2.2712,2.2728,2.281,2.2877,2.2888,2.2885,2.285,2.2888,2.2903,2.2881,2.302,2.2978,2.2995,2.3047,2.3189,2.3197,2.3204,2.3255,2.327,2.3283,0,0,0,0,0,0,2.27,2.273,2.2715,2.2809,2.284,2.287,2.2919,2.2902,2.2946,2.2939,2.2935,2.2945,2.3029,2.3047,2.3,2.3147,2.3099,2.311,2.3131,2.3146,2.3158,2.3151,2.2953,0,0,0,0,0,2.2723,2.2775,2.2798,2.2879,2.2895,2.2904,2.2934,2.2929,2.2962,2.2976,2.2996,2.3031,2.3081,2.3115,2.3164,2.3263,2.3269,2.3307,2.3319,2.3328,2.3338,2.3388,2.3404,2.3233,2.3233,2.3233,0,0,2.2771,2.2794,2.2827,2.289,2.2914,2.2967,2.2916,2.2976,2.3015,2.2986,2.3062,2.3079,2.3117,2.3206,2.3247,2.3224,2.3386,2.3338,2.3346,2.335,2.3397,2.3413,2.3428,2.3238,2.3237,2.3236,0,0,2.2885,2.2909,2.2976,2.3,2.3036,2.3042,2.3058,2.309,2.3098,2.3175,2.3153,2.3201,2.3289,2.3316,2.3341,2.3462,2.3443,2.3479,2.354,2.3589,2.3602,2.3614,2.3655,2.3669,2.3488,2.3489,2.3489,0,2.2941,2.302,2.3014,2.3073,2.3101,2.3074,2.3142,2.3166,2.3217,2.3237,2.321,2.3318,2.3342,2.3436,2.3465,2.3488,2.3505,2.3474,2.3601,2.3613,2.3624,2.3662,2.3677,2.3492,2.3492,2.3492,2.3491,0,2.3084,2.3139,2.319,2.3236,2.3269,2.3334,2.3337,2.3372,2.3363,2.3371,2.3449,2.3476,2.3528,2.355,2.3544,2.3643,2.3626,2.3601,2.3552,2.3644,2.3679,2.3694,2.3498,2.3497,2.3495,2.3494,0,0,2.3236,2.3276,2.3295,2.3313,2.335,2.3393,2.3455,2.3503,2.3532,2.3568,2.3618,2.3693,2.3667,2.3696,2.3693,2.3736,2.3826,2.3704,2.3705,2.3723,2.3932,2.395,2.3967,2.3814,2.3817,2.3819,2.3928,0,2.335,2.3456,2.3452,2.3551,2.36,2.3574,2.3628,2.3656,2.3665,2.3708,2.3719,2.377,2.3735,2.3751,2.3793,2.3806,2.3867,2.3799,2.386,2.3862,2.3848,2.3986,2.4005,2.4107,2.3942,2.3945,2.3947,0,2.3498,2.3535,2.3638,2.3664,2.3684,2.3733,2.3774,2.3817,2.3848,2.3851,2.3881,2.387,2.3932,2.3883,2.3968,2.3921,2.3946,2.3956,2.396,2.3964,2.3908,2.3991,2.414,2.4154,2.3969,2.3967,2.3966,0,2.3594,2.3671,2.3741,2.3759,2.3792,2.3825,2.3841,2.3869,2.3897,2.3934,2.3952,2.3998,2.4022,2.4058,2.4058,2.4023,2.4143,2.4095,2.4146,2.4146,2.4171,2.4169,2.4323,2.4192,2.4192,2.4192,2.4191,0,2.372,2.3784,2.3784,2.3827,2.3897,2.3891,2.396,2.3973,2.3997,2.4042,2.4024,2.4067,2.4067,2.411,2.4112,2.418,2.4192,2.4196,2.4195,2.4196,2.4195,2.4211,2.4203,2.4196,2.4195,2.4194,2.4193,0,2.3839,2.3842,2.3916,2.394,2.3947,2.3998,2.4018,2.4059,2.4065,2.4122,2.4135,2.4146,2.4196,2.42,2.426,2.4261,2.4342,2.4335,2.4331,2.4328,2.4378,2.4372,2.4546,2.4567,2.4425,2.4426,2.4427,0,2.3918,2.3966,2.3993,2.4021,2.4037,2.4083,2.4111,2.4107,2.4136,2.4173,2.4209,2.4257,2.4294,2.4376,2.4389,2.4434,2.4426,2.4484,2.4433,2.4431,2.4423,2.4419,2.4422,2.4493,2.4494,2.4496,2.4497,0,2.4057,2.4055,2.4095,2.4134,2.4167,2.4199,2.4228,2.4252,2.4251,2.4286,2.4335,2.4364,2.4422,2.4469,2.4512,2.4529,2.4512,2.4513,2.4526,2.4526,2.452,2.4521,2.4354,2.4508,2.4507,2.4506,2.4506,2.4505,2.4156,2.4196,2.422,2.4264,2.4285,2.4312,2.435,2.436,2.4401,2.4446,2.4442,2.4496,2.4523,2.4579,2.4598,2.4641,2.4621,2.4642,2.4647,2.4651,2.4655,2.4515,2.4649,2.4649,2.4649,2.4648,2.4648,0,2.4292,2.4305,2.4346,2.4385,2.4419,2.4399,2.443,2.446,2.4507,2.4534,2.457,2.4625,2.467,2.4686,2.4729,2.476,2.4753,2.4771,2.4768,2.4771,2.4671,2.4653,2.4776,2.4776,2.4776,2.4776,2.4776,2.4776,2.4366,2.443,2.4431,2.4505,2.4519,2.4569,2.4588,2.4613,2.4633,2.4695,2.4731,2.474,2.4762,2.4806,2.4846,2.485,2.4865,2.4886,2.4886,2.4792,2.4779,2.4767,2.475,2.489,2.489,2.4982,2.4983,2.4984]},{"header":{"parameterUnit":"m.s-1","parameterCategory":1,"la1":30.2991,"la2":30.254,"lo1":-89.0895,"lo2":-89.0444,"dy":0.0017,"dx":0.0017,"nx":28,"ny":28,"refTime":"2025-07-10T03:00:00:Z","depth":0,"parameterNumber":3,"parameterNumberName":"V-component_of_WINDS"},"data":[0,0,0,0,0,0,0,0,0,0,0,0,0,0,0,0,0,0,0,0,0,0,0,0,0,0,0,0,0,0,0,0,0,0,0,0,0,0,0,0,0,0,0,0,0,0,0,0,0,0,0,0,0,0,0,0,0,0,4.171,4.1713,0,4.2035,4.2039,4.2043,4.2093,4.209,4.2087,4.2085,4.2415,4.2426,4.2438,0,0,0,0,0,0,0,0,0,0,0,0,0,4.1127,4.1138,4.1709,4.1713,4.1717,4.2035,4.2039,4.2044,4.2094,4.209,4.2087,4.2083,4.2411,4.2425,4.2439,0,0,0,0,0,0,0,0,0,0,0,0,0,4.1409,4.1141,4.1709,4.1781,4.179,4.2034,4.2039,4.2045,4.2095,4.209,4.2086,4.2082,4.2407,4.2424,4.2441,4.2634,0,0,4.2493,4.2501,0,0,0,0,0,0,0,0,4.1393,4.1431,4.1766,4.1776,4.1788,4.2019,4.1955,4.2242,4.2096,4.1979,4.2085,4.208,4.2287,4.2314,4.2384,4.2649,4.2664,4.2495,4.2505,4.2513,4.2518,0,0,0,0,0,0,0,4.1374,4.1417,4.1838,4.1771,4.1784,4.1796,4.1831,4.201,4.2153,4.1989,4.1993,4.2031,4.2292,4.2367,4.2392,4.2668,4.2494,4.251,4.252,4.2527,4.3108,4.3112,0,0,0,0,0,0,4.1341,4.14,4.1828,4.1848,4.1576,4.181,4.1849,4.1949,4.2151,4.2178,4.2035,4.2032,4.234,4.2372,4.2404,4.2643,4.2513,4.2529,4.2539,4.3103,4.3109,4.3114,0,0,0,0,0,0,4.1329,4.1379,4.1815,4.1626,4.1682,4.1825,4.1936,4.1958,4.2034,4.2186,4.2211,4.2086,4.2338,4.238,4.2577,4.2655,4.2537,4.2552,4.3097,4.3105,4.3112,4.3123,0,0,0,0,0,0,4.1312,4.1374,4.145,4.1627,4.1692,4.1983,4.1941,4.1967,4.2064,4.2064,4.2241,4.2266,4.2338,4.255,4.2594,4.2677,4.2566,4.309,4.31,4.3109,4.3116,4.313,4.3142,0,0,0,0,0,4.1291,4.1439,4.1453,4.1505,4.1789,4.1987,4.2024,4.2105,4.207,4.2147,4.2244,4.226,4.264,4.257,4.2619,4.2709,4.3086,4.3097,4.3108,4.311,4.3127,4.3141,0,0,0,0,0,0,4.1267,4.1464,4.1482,4.1692,4.1823,4.1995,4.2094,4.212,4.2262,4.2256,4.2349,4.2389,4.2581,4.2665,4.2584,4.2906,4.286,4.2881,4.2844,4.2862,4.2874,4.2849,4.258,0,0,0,0,0,4.1286,4.1431,4.1595,4.1765,4.183,4.1951,4.204,4.2091,4.2229,4.2284,4.2397,4.2529,4.2679,4.2775,4.2921,4.3128,4.3167,4.3214,4.3227,4.3237,4.3254,4.3369,4.3392,4.3152,4.3152,4.3152,0,0,4.1327,4.1453,4.1539,4.1763,4.1871,4.2018,4.1997,4.2153,4.2263,4.2308,4.2501,4.2587,4.2742,4.2944,4.3039,4.302,4.3329,4.3251,4.3258,4.327,4.3383,4.3406,4.3426,4.316,4.3158,4.3157,0,0,4.1478,4.1588,4.1741,4.1849,4.2012,4.2091,4.2128,4.2297,4.2357,4.2552,4.2589,4.272,4.2975,4.3083,4.3172,4.3363,4.3382,4.3407,4.3474,4.3586,4.3604,4.3622,4.3689,4.3712,4.3424,4.3425,4.3425,0,4.1508,4.1732,4.1816,4.1972,4.2069,4.2118,4.2273,4.2373,4.2574,4.264,4.2616,4.2937,4.3045,4.3273,4.332,4.339,4.3434,4.3387,4.3595,4.3613,4.3631,4.3696,4.3721,4.3426,4.3426,4.3426,4.3426,0,4.1761,4.1915,4.202,4.2214,4.2323,4.2478,4.2584,4.2685,4.2726,4.2807,4.3005,4.3135,4.3308,4.3366,4.3408,4.3601,4.3584,4.3576,4.3532,4.3654,4.3717,4.3742,4.3429,4.3429,4.3428,4.3428,0,0,4.1904,4.2144,4.218,4.2269,4.2452,4.2573,4.2729,4.2899,4.2983,4.312,4.3253,4.3468,4.3462,4.3562,4.3616,4.3714,4.3856,4.3695,4.37,4.372,4.4076,4.4079,4.4107,4.387,4.3876,4.388,4.4062,0,4.2075,4.2356,4.2437,4.2673,4.2817,4.2865,4.3001,4.3127,4.3208,4.334,4.3429,4.3579,4.3561,4.3622,4.3721,4.3818,4.3928,4.3806,4.3993,4.3999,4.3952,4.414,4.4145,4.4311,4.4087,4.4092,4.4095,0,4.2312,4.2455,4.2706,4.287,4.2933,4.3054,4.3216,4.3343,4.3487,4.3539,4.3651,4.3696,4.386,4.3806,4.4032,4.3947,4.4029,4.4088,4.4096,4.4116,4.4053,4.4164,4.4366,4.439,4.4134,4.4131,4.4128,0,4.239,4.2645,4.2828,4.2903,4.3099,4.3183,4.3269,4.3409,4.3506,4.3647,4.3711,4.3869,4.3955,4.4075,4.4162,4.4115,4.438,4.4334,4.4426,4.4424,4.4479,4.4475,4.4696,4.4533,4.4533,4.4532,4.4532,0,4.2572,4.2723,4.2866,4.2978,4.3149,4.324,4.3406,4.3494,4.3618,4.3747,4.3799,4.3919,4.4026,4.416,4.4229,4.4405,4.4444,4.4489,4.4505,4.4484,4.4478,4.4538,4.4529,4.4539,4.4538,4.4536,4.4535,0,4.2687,4.2789,4.2992,4.3162,4.3208,4.3327,4.3472,4.3582,4.3664,4.3828,4.3871,4.4,4.4161,4.426,4.4463,4.4509,4.4703,4.4715,4.4654,4.4662,4.4748,4.4738,4.5015,4.5056,4.4866,4.4868,4.4869,0,4.2796,4.2914,4.3097,4.3188,4.3275,4.3421,4.352,4.3614,4.3715,4.3888,4.3977,4.4141,4.4278,4.4532,4.4643,4.4799,4.4815,4.4901,4.4838,4.4813,4.4815,4.4806,4.4818,4.4911,4.4912,4.4914,4.4915,0,4.2978,4.3023,4.3165,4.3325,4.3442,4.3572,4.3702,4.3773,4.3889,4.4,4.4165,4.4271,4.4479,4.4641,4.4807,4.4894,4.4923,4.4934,4.4963,4.4943,4.4902,4.4924,4.4682,4.4927,4.4926,4.4925,4.4924,4.4924,4.3094,4.32,4.3346,4.3502,4.361,4.373,4.3842,4.3939,4.4079,4.4256,4.4303,4.4476,4.4616,4.4842,4.4933,4.5068,4.5055,4.5098,4.5109,4.5118,4.5119,4.4881,4.5099,4.5099,4.5098,4.5098,4.5098,0,4.3277,4.3373,4.3516,4.3696,4.3819,4.3838,4.3983,4.4083,4.4236,4.4365,4.4498,4.4688,4.4846,4.4969,4.513,4.5215,4.5233,4.5254,4.5249,4.5268,4.5122,4.508,4.5238,4.5237,4.5237,4.5237,4.5237,4.5237,4.3387,4.3569,4.363,4.3865,4.3961,4.4131,4.4212,4.4323,4.4426,4.4637,4.4768,4.4848,4.4975,4.5146,4.5291,4.5323,4.5379,4.5398,4.5433,4.5294,4.5278,4.5264,4.5225,4.541,4.541,4.5568,4.5569,4.557]}]]